EN

Hourly Weather Bolshie Selyutichi

Today, 24 October, Saturday

Time Temperature Precipitation Wind Pressure Humidity
00:00 +12°C° 0 mm 2 mps 747 mmHg 93%
01:00 +10°C° 0 mm 2 mps 747 mmHg 94%
02:00 +10°C° 0 mm 2 mps 747 mmHg 94%
03:00 +11°C° 0 mm 1 mps 747 mmHg 95%
04:00 +11°C° 0 mm 1 mps 746 mmHg 95%
05:00 +11°C° 0 mm 1 mps 746 mmHg 96%
06:00 +12°C° 0.1 mm 1 mps 746 mmHg 95%
07:00 +12°C° 0.1 mm 1 mps 746 mmHg 95%
08:00 +12°C° 0.1 mm 1 mps 746 mmHg 95%
09:00 +12°C° 0 mm 2 mps 746 mmHg 90%
10:00 +13°C° 0 mm 2 mps 746 mmHg 86%
11:00 +13°C° 0 mm 3 mps 745 mmHg 82%
12:00 +13°C° 0 mm 3 mps 745 mmHg 80%
13:00 +13°C° 0 mm 3 mps 745 mmHg 78%
14:00 +14°C° 0 mm 3 mps 745 mmHg 77%
15:00 +13°C° 0.1 mm 4 mps 745 mmHg 81%
16:00 +12°C° 0.1 mm 4 mps 745 mmHg 85%
17:00 +11°C° 0.1 mm 4 mps 745 mmHg 90%
18:00 +11°C° 0 mm 3 mps 746 mmHg 91%
19:00 +11°C° 0 mm 3 mps 747 mmHg 92%
20:00 +11°C° 0 mm 3 mps 747 mmHg 93%
21:00 +10°C° 0 mm 3 mps 748 mmHg 94%
22:00 +9°C° 0 mm 2 mps 748 mmHg 95%
23:00 +8°C° 0 mm 2 mps 748 mmHg 96%

Tomorrow, 25 October, Sunday

Time Temperature Precipitation Wind Pressure Humidity
00:00 +8°C° 0 mm 2 mps 749 mmHg 96%
01:00 +8°C° 0 mm 2 mps 749 mmHg 96%
02:00 +8°C° 0 mm 2 mps 749 mmHg 96%
03:00 +8°C° 0 mm 2 mps 749 mmHg 96%
04:00 +7°C° 0 mm 2 mps 750 mmHg 96%
05:00 +7°C° 0 mm 2 mps 750 mmHg 96%
06:00 +8°C° 0 mm 2 mps 750 mmHg 96%
07:00 +8°C° 0 mm 2 mps 750 mmHg 95%
08:00 +8°C° 0 mm 2 mps 751 mmHg 95%
09:00 +9°C° 0 mm 2 mps 751 mmHg 90%
10:00 +12°C° 0 mm 2 mps 751 mmHg 85%
11:00 +13°C° 0 mm 2 mps 751 mmHg 80%
12:00 +14°C° 0 mm 1 mps 751 mmHg 78%
13:00 +15°C° 0 mm 1 mps 751 mmHg 76%
14:00 +16°C° 0 mm 1 mps 751 mmHg 73%
15:00 +14°C° 0 mm 1 mps 751 mmHg 78%
16:00 +13°C° 0 mm 1 mps 751 mmHg 83%
17:00 +11°C° 0 mm 0 mps 751 mmHg 89%
18:00 +12°C° 0 mm 1 mps 751 mmHg 89%
19:00 +11°C° 0 mm 1 mps 751 mmHg 90%
20:00 +11°C° 0 mm 1 mps 752 mmHg 91%
21:00 +11°C° 0 mm 1 mps 752 mmHg 92%
22:00 +10°C° 0 mm 1 mps 752 mmHg 92%
23:00 +9°C° 0 mm 2 mps 752 mmHg 93%

Day after tomorrow, 26 October, Monday

Time Temperature Precipitation Wind Pressure Humidity
00:00 +9°C° 0 mm 2 mps 752 mmHg 92%
01:00 +9°C° 0 mm 2 mps 752 mmHg 92%
02:00 +9°C° 0 mm 2 mps 752 mmHg 92%
03:00 +9°C° 0 mm 2 mps 752 mmHg 91%
04:00 +8°C° 0 mm 3 mps 752 mmHg 91%
05:00 +8°C° 0 mm 3 mps 751 mmHg 90%
06:00 +9°C° 0 mm 3 mps 751 mmHg 89%
07:00 +9°C° 0 mm 3 mps 751 mmHg 88%
08:00 +8°C° 0 mm 4 mps 751 mmHg 86%
09:00 +10°C° 0 mm 4 mps 751 mmHg 80%
10:00 +11°C° 0 mm 4 mps 751 mmHg 75%
11:00 +13°C° 0 mm 4 mps 751 mmHg 69%
12:00 +13°C° 0 mm 4 mps 751 mmHg 67%
13:00 +14°C° 0 mm 5 mps 751 mmHg 64%
14:00 +14°C° 0 mm 5 mps 751 mmHg 62%
15:00 +13°C° 0 mm 4 mps 750 mmHg 66%
16:00 +13°C° 0 mm 4 mps 750 mmHg 69%
17:00 +12°C° 0 mm 4 mps 750 mmHg 73%
18:00 +11°C° 0 mm 4 mps 750 mmHg 75%
19:00 +11°C° 0 mm 4 mps 750 mmHg 76%
20:00 +11°C° 0 mm 4 mps 751 mmHg 78%
21:00 +10°C° 0 mm 4 mps 750 mmHg 79%
22:00 +10°C° 0 mm 3 mps 750 mmHg 80%
23:00 +10°C° 0 mm 3 mps 750 mmHg 81%

, 27 October, Tuesday

Time Temperature Precipitation Wind Pressure Humidity
00:00 +9°C° 0 mm 3 mps 750 mmHg 81%
01:00 +9°C° 0 mm 3 mps 751 mmHg 82%
02:00 +8°C° 0 mm 4 mps 751 mmHg 82%
03:00 +8°C° 0 mm 4 mps 751 mmHg 83%
04:00 +8°C° 0 mm 4 mps 751 mmHg 83%
05:00 +8°C° 0 mm 4 mps 751 mmHg 84%
06:00 +8°C° 0 mm 4 mps 751 mmHg 83%
07:00 +8°C° 0 mm 4 mps 751 mmHg 83%
08:00 +8°C° 0 mm 4 mps 751 mmHg 82%
09:00 +10°C° 0 mm 4 mps 751 mmHg 78%
10:00 +12°C° 0 mm 4 mps 751 mmHg 73%
11:00 +13°C° 0 mm 4 mps 751 mmHg 68%
12:00 +14°C° 0 mm 4 mps 751 mmHg 67%
13:00 +14°C° 0 mm 4 mps 751 mmHg 66%
14:00 +15°C° 0 mm 4 mps 751 mmHg 64%
15:00 +14°C° 0 mm 3 mps 751 mmHg 69%
16:00 +13°C° 0 mm 3 mps 751 mmHg 74%
17:00 +12°C° 0 mm 3 mps 751 mmHg 79%
18:00 +11°C° 0 mm 3 mps 751 mmHg 79%
19:00 +11°C° 0 mm 3 mps 751 mmHg 79%
20:00 +11°C° 0 mm 4 mps 751 mmHg 80%
21:00 +10°C° 0 mm 3 mps 751 mmHg 80%
22:00 +10°C° 0 mm 3 mps 751 mmHg 81%
23:00 +10°C° 0 mm 3 mps 751 mmHg 81%

27 October, Tuesday

Time Temperature Precipitation Wind Pressure Humidity
00:00 +9°C° 0 mm 3 mps 750 mmHg 81%
01:00 +9°C° 0 mm 3 mps 751 mmHg 82%
02:00 +8°C° 0 mm 4 mps 751 mmHg 82%
03:00 +8°C° 0 mm 4 mps 751 mmHg 83%
04:00 +8°C° 0 mm 4 mps 751 mmHg 83%
05:00 +8°C° 0 mm 4 mps 751 mmHg 84%
06:00 +8°C° 0 mm 4 mps 751 mmHg 83%
07:00 +8°C° 0 mm 4 mps 751 mmHg 83%
08:00 +8°C° 0 mm 4 mps 751 mmHg 82%
09:00 +10°C° 0 mm 4 mps 751 mmHg 78%
10:00 +12°C° 0 mm 4 mps 751 mmHg 73%
11:00 +13°C° 0 mm 4 mps 751 mmHg 68%
12:00 +14°C° 0 mm 4 mps 751 mmHg 67%
13:00 +14°C° 0 mm 4 mps 751 mmHg 66%
14:00 +15°C° 0 mm 4 mps 751 mmHg 64%
15:00 +14°C° 0 mm 3 mps 751 mmHg 69%
16:00 +13°C° 0 mm 3 mps 751 mmHg 74%
17:00 +12°C° 0 mm 3 mps 751 mmHg 79%
18:00 +11°C° 0 mm 3 mps 751 mmHg 79%
19:00 +11°C° 0 mm 3 mps 751 mmHg 79%
20:00 +11°C° 0 mm 4 mps 751 mmHg 80%
21:00 +10°C° 0 mm 3 mps 751 mmHg 80%
22:00 +10°C° 0 mm 3 mps 751 mmHg 81%
23:00 +10°C° 0 mm 3 mps 751 mmHg 81%

28 October, Wednesday

Time Temperature Precipitation Wind Pressure Humidity
00:00 +10°C° 0 mm 3 mps 751 mmHg 83%
01:00 +9°C° 0 mm 3 mps 751 mmHg 84%
02:00 +9°C° 0 mm 3 mps 751 mmHg 86%
03:00 +9°C° 0 mm 3 mps 751 mmHg 87%
04:00 +9°C° 0 mm 3 mps 751 mmHg 88%
05:00 +9°C° 0 mm 3 mps 751 mmHg 89%
06:00 +9°C° 0 mm 3 mps 751 mmHg 89%
07:00 +9°C° 0 mm 3 mps 751 mmHg 89%
08:00 +9°C° 0 mm 3 mps 751 mmHg 89%
09:00 +11°C° 0 mm 3 mps 751 mmHg 84%
10:00 +12°C° 0 mm 4 mps 751 mmHg 79%
11:00 +13°C° 0 mm 4 mps 752 mmHg 74%
12:00 +14°C° 0 mm 4 mps 751 mmHg 72%
13:00 +15°C° 0 mm 4 mps 751 mmHg 70%
14:00 +15°C° 0 mm 4 mps 751 mmHg 67%
15:00 +14°C° 0 mm 4 mps 751 mmHg 71%
16:00 +13°C° 0 mm 3 mps 751 mmHg 74%
17:00 +12°C° 0 mm 3 mps 751 mmHg 78%
18:00 +11°C° 0 mm 3 mps 751 mmHg 79%
19:00 +11°C° 0 mm 3 mps 751 mmHg 79%
20:00 +10°C° 0 mm 3 mps 751 mmHg 80%
21:00 +10°C° 0 mm 3 mps 752 mmHg 81%
22:00 +9°C° 0 mm 3 mps 752 mmHg 82%
23:00 +9°C° 0 mm 3 mps 752 mmHg 83%

29 October, Thursday

Time Temperature Precipitation Wind Pressure Humidity
00:00 +9°C° 0 mm 3 mps 752 mmHg 84%
01:00 +8°C° 0 mm 3 mps 752 mmHg 86%
02:00 +8°C° 0 mm 2 mps 751 mmHg 87%
03:00 +7°C° 0 mm 2 mps 751 mmHg 88%
04:00 +7°C° 0 mm 2 mps 751 mmHg 89%
05:00 +7°C° 0 mm 2 mps 751 mmHg 90%
06:00 +7°C° 0 mm 2 mps 751 mmHg 89%
07:00 +7°C° 0 mm 3 mps 751 mmHg 88%
08:00 +7°C° 0 mm 3 mps 751 mmHg 87%
09:00 +8°C° 0 mm 3 mps 751 mmHg 81%
10:00 +10°C° 0 mm 3 mps 751 mmHg 75%
11:00 +12°C° 0 mm 2 mps 752 mmHg 70%
12:00 +13°C° 0 mm 2 mps 751 mmHg 68%
13:00 +14°C° 0 mm 2 mps 751 mmHg 66%
14:00 +14°C° 0 mm 2 mps 751 mmHg 64%
15:00 +13°C° 0 mm 2 mps 751 mmHg 69%
16:00 +12°C° 0 mm 2 mps 751 mmHg 75%
17:00 +11°C° 0 mm 1 mps 751 mmHg 80%
18:00 +11°C° 0 mm 1 mps 751 mmHg 82%
19:00 +9°C° 0 mm 2 mps 751 mmHg 83%
20:00 +9°C° 0 mm 2 mps 751 mmHg 85%
21:00 +10°C° 0 mm 1 mps 751 mmHg 87%
22:00 +10°C° 0 mm 1 mps 752 mmHg 88%
23:00 +10°C° 0 mm 1 mps 752 mmHg 89%
Show more